Regional Weather Roundup
Issued by NWS Boston, MA

Current Version | Previous Version | Text Only | Print | Product List | Glossary Off
Versions: 1 2 3 4 5 6 7 8 9 10 11 12 13 14 15 16 17 18 19 20 21 22 23 24 25 26 27 28 29 30 31 32 33 34 35 36 37 38 39 40 41 42 43 44 45 46 47 48 49 50
000 ASUS41 KBOX 181610 RWRBOX REGIONAL WEATHER ROUNDUP NATIONAL WEATHER SERVICE BOSTON/NORTON MA 1200 PM EDT TUE SEP 18 2018 NOTE: "FAIR" INDICATES FEW OR NO CLOUDS BELOW 12,000 FEET WITH NO SIGNIFICANT WEATHER AND/OR OBSTRUCTIONS TO VISIBILITY. MAZALL-181700- EASTERN MASSACHUSETTS CITY SKY/WX TMP DP RH WIND PRES REMARKS BOSTON TSTM 70 68 93 N5 29.72S FOG BEVERLY LGT RAIN 69 68 96 NE7 29.72R LAWRENCE RAIN 71 67 87 N6 29.74F FOG BEDFORD LGT RAIN 69 67 93 NW3 29.73R FOG BLUE HILL N/A 68 68 100 NW10 29.75R NORWOOD TSTM 72 71 97 NW3 29.73R VSB 1/4 MARSHFIELD CLOUDY 77 75 94 SW13G24 29.71S THUNDER PLYMOUTH CLOUDY 76 73 91 SW20G30 29.74F TAUNTON CLOUDY 76 73 91 SW12G21 29.73F FOG NEW BEDFORD CLOUDY 75 75 100 SW17G24 29.73F $$ MAZALL-181700- CAPE COD AND THE ISLANDS CITY SKY/WX TMP DP RH WIND PRES REMARKS FALMOUTH CLOUDY 75 73 94 SW28G38 29.75F HYANNIS LGT RAIN 76 73 91 SW18G26 29.73F CHATHAM CLOUDY 76 71 85 SW12G26 29.77F PROVINCETOWN LGT RAIN 74 73 97 SW21 29.73F NANTUCKET CLOUDY 74 70 87 S15 29.79F MARTHAS VNYRD CLOUDY 76 73 91 SW20G30 29.76F $$ MAZALL-181700- CENTRAL AND WESTERN MASSACHUSETTS CITY SKY/WX TMP DP RH WIND PRES REMARKS WORCESTER LGT RAIN 66 66 100 NE7 29.77F FOG FITCHBURG RAIN 67 67 100 CALM 29.77R FOG ORANGE RAIN 70 68 93 NW3 29.78F FOG SPRINGFIELD RAIN 69 68 97 N9 29.75R FOG WESTFIELD HVY RAIN 69 69 100 N7 29.75F FOG NORTH ADAMS CLOUDY 69 68 96 VRB5 29.79F PITTSFIELD LGT RAIN 68 65 90 CALM 29.80F $$ RIZALL-181700- RHODE ISLAND CITY SKY/WX TMP DP RH WIND PRES REMARKS PROVIDENCE CLOUDY 76 74 93 SW13 29.74F FOG NEWPORT CLOUDY 73 72 96 SW10G18 29.75F FOG BLOCK ISLAND CLOUDY 75 72 90 SW23G32 29.76F SMITHFIELD LGT RAIN 75 74 96 VRB7 29.74F WESTERLY CLOUDY 76 75 97 SW13 29.75F $$ CTZALL-181700- CONNECTICUT CITY SKY/WX TMP DP RH WIND PRES REMARKS BRADLEY INTL RAIN 70 69 97 N14 29.73F FOG HARTFORD RAIN 71 69 93 NW9 29.73R FOG BRIDGEPORT LGT RAIN 77 75 93 SW9 29.73F DANBURY LGT RAIN 71 69 93 NW5 29.78R GROTON CLOUDY 77 74 90 SW15G22 29.72F NEW HAVEN CLOUDY 77 75 93 SW9 29.73S FOG CHESTER LGT RAIN 77 75 94 SW9G16 29.74F VSB 1 MERIDEN LGT RAIN 76 74 93 VRB3 29.72F FOG WILLIMANTIC CLOUDY 77 75 93 SW8 29.72S OXFORD LGT RAIN 72 70 94 N12 29.77R FOG $$ MEZ002-015-021-024-NHZ003-005-008-011-012-014-VTZ005-008-181700- NORTHERN NEW ENGLAND CITY SKY/WX TMP DP RH WIND PRES REMARKS PORTLAND ME RAIN 68 68 100 VRB3 29.74F FOG BANGOR ME PTSUNNY 74 67 78 SW6 29.76F CONCORD NH CLOUDY 71 69 93 NW3 29.76S MANCHESTER NH LGT RAIN 70 69 97 N6 29.73F NASHUA NH LGT RAIN 69 69 100 NW6 29.75S FOG PORTSMOUTH NH LGT RAIN 69 69 100 NW7 29.73 JAFFREY NH LGT RAIN 68 68 100 VRB3 29.78F FOG KEENE NH CLOUDY N/A N/A N/A N3 29.77F BURLINGTON VT FAIR 82 65 56 VRB3 29.76F MT. WASHINGTON FOG 54 54 100 NW16 N/A VSB 1/16 $$ NYZ052-076-181700- EASTERN NEW YORK CITY SKY/WX TMP DP RH WIND PRES REMARKS ALBANY PTSUNNY 75 68 78 VRB3 29.79F NEW YORK CITY PTSUNNY 82 72 71 SW13 29.73F $$ ANZALL-181700- MARINE OBSERVATIONS STATION/POSITION TIME TEMP WIND PRES VSBY WAVE AIR SEA DIR/SP/G HT/PER (UTC) (F) (DEG/KT/KT) (MB) (MI) (FT/S) BOSTON BUOY 1550 70 68 310/ 12/ 17 1005.8R 3/ 3 BUZZARDS BAY 1600 72 210/ 24/ 26 1007.7F NANTUCKET SOUND 1550 73 72 190/ 21/ 25 1007.4F 3/ 4 MASS BAY-STELLWA 1504 70 67 190/ 10/ 12 1003.9F 1 7/8 ISLE OF SHOALS 1600 67 60/ 13/ 14 1005.4F S OF BLOCK IS 1543 69 N/A 4/ 4 $$ ......................KEY......................... SKY/WX - SKY CONDITION/PRESENT WEATHER TMP - TEMPERATURE IN FAHRENHEIT DWPT - DEWPOINT IN FAHRENHEIT RH - RELATIVE HUMIDITY IN PERCENT WIND - DIRECTION AND SPEED IN MPH PRES - MEAN SEA LEVEL PRESSURE IN INCHES OF HG WCI - WIND CHILL INDEX VSB - VISIBILITY IN MILES HX - HEAT INDEX TC - TEMPERATURE IN CELSIUS VRB - VARIABLE WIND DIRECTION N/A - NOT AVAILABLE

USA.gov is the U.S. government's official web portal to all federal, state and local government web resources and services.